Time,TemperatureF,DewpointF,PressureIn,WindDirection,WindDirectionDegrees,WindSpeedMPH,WindSpeedGustMPH,Humidity,HourlyPrecipIn,Conditions,Clouds,dailyrainin,SoftwareType,DateUTC
2013-02-11 00:01:00,15.0,6.0,30.22,South,190,2.0,7.0,68,0.00,,,0.01,,2013-02-11 07:01:00,
2013-02-11 00:11:00,15.0,6.0,30.23,SSW,213,4.0,10.0,66,0.00,,,0.01,,2013-02-11 07:11:00,
2013-02-11 00:21:00,15.0,6.0,30.23,SSW,213,4.0,10.0,66,0.00,,,0.01,,2013-02-11 07:21:00,
2013-02-11 00:31:00,15.0,6.0,30.23,SW,225,7.0,9.0,66,0.00,,,0.01,,2013-02-11 07:31:00,
2013-02-11 00:41:00,14.0,5.0,30.23,SSW,194,7.0,11.0,66,0.00,,,0.01,,2013-02-11 07:41:00,
2013-02-11 00:51:00,14.0,5.0,30.23,SSW,194,7.0,11.0,66,0.00,,,0.01,,2013-02-11 07:51:00,
2013-02-11 01:01:00,14.0,5.0,30.23,South,188,4.0,9.0,66,0.00,,,0.01,,2013-02-11 08:01:00,
2013-02-11 01:11:00,14.0,5.0,30.23,South,188,4.0,9.0,66,0.00,,,0.01,,2013-02-11 08:11:00,
2013-02-11 01:21:00,14.0,5.0,30.23,South,180,3.0,8.0,66,0.00,,,0.01,,2013-02-11 08:21:00,
2013-02-11 01:31:00,13.0,4.0,30.23,South,186,3.0,4.0,68,0.00,,,0.01,,2013-02-11 08:31:00,
2013-02-11 01:42:00,12.0,3.0,30.23,SSW,199,1.0,5.0,67,0.00,,,0.01,,2013-02-11 08:42:00,
2013-02-11 01:52:00,12.0,3.0,30.23,SSW,199,1.0,5.0,67,0.00,,,0.01,,2013-02-11 08:52:00,
2013-02-11 02:01:00,11.0,3.0,30.23,South,190,1.0,5.0,68,0.00,,,0.01,,2013-02-11 09:01:00,
2013-02-11 02:12:00,11.0,3.0,30.23,South,190,1.0,5.0,68,0.00,,,0.01,,2013-02-11 09:12:00,
2013-02-11 02:21:00,11.0,3.0,30.24,SW,215,3.0,6.0,68,0.00,,,0.01,,2013-02-11 09:21:00,
2013-02-11 02:31:00,12.0,3.0,30.24,SW,218,2.0,7.0,67,0.00,,,0.01,,2013-02-11 09:31:00,
2013-02-11 02:41:00,12.0,3.0,30.24,SW,218,2.0,7.0,67,0.00,,,0.01,,2013-02-11 09:41:00,
2013-02-11 02:51:00,11.0,3.0,30.24,South,184,1.0,3.0,68,0.00,,,0.01,,2013-02-11 09:51:00,
2013-02-11 03:01:00,10.0,1.0,30.24,South,178,3.0,5.0,66,0.00,,,0.01,,2013-02-11 10:01:00,
2013-02-11 03:11:00,10.0,1.0,30.24,South,178,3.0,5.0,66,0.00,,,0.01,,2013-02-11 10:11:00,
2013-02-11 03:21:00,9.0,0.0,30.24,South,178,0.0,3.0,67,0.00,,,0.01,,2013-02-11 10:21:00,
2013-02-11 03:31:00,10.0,2.0,30.24,SSE,164,2.0,4.0,69,0.00,,,0.01,,2013-02-11 10:31:00,
2013-02-11 03:41:00,10.0,2.0,30.24,SSE,164,2.0,4.0,69,0.00,,,0.01,,2013-02-11 10:41:00,
2013-02-11 03:51:00,11.0,2.0,30.24,South,182,4.0,7.0,66,0.00,,,0.01,,2013-02-11 10:51:00,
2013-02-11 04:01:00,11.0,1.0,30.24,South,184,4.0,6.0,64,0.00,,,0.01,,2013-02-11 11:01:00,
2013-02-11 04:11:00,11.0,1.0,30.24,South,184,4.0,6.0,64,0.00,,,0.01,,2013-02-11 11:11:00,
2013-02-11 04:21:00,8.0,0.0,30.24,South,183,1.0,4.0,68,0.00,,,0.01,,2013-02-11 11:21:00,
2013-02-11 04:32:00,8.0,0.0,30.24,SSW,205,2.0,5.0,70,0.00,,,0.01,,2013-02-11 11:32:00,
2013-02-11 04:42:00,10.0,1.0,30.24,SSW,205,4.0,7.0,65,0.00,,,0.01,,2013-02-11 11:42:00,
2013-02-11 04:52:00,10.0,1.0,30.24,SSW,205,4.0,7.0,65,0.00,,,0.01,,2013-02-11 11:52:00,
2013-02-11 05:02:00,10.0,0.0,30.25,South,186,5.0,7.0,63,0.00,,,0.01,,2013-02-11 12:02:00,
2013-02-11 05:12:00,10.0,0.0,30.25,South,186,5.0,7.0,63,0.00,,,0.01,,2013-02-11 12:12:00,
2013-02-11 05:22:00,8.0,-1.0,30.25,South,186,0.0,2.0,65,0.00,,,0.01,,2013-02-11 12:22:00,
2013-02-11 05:31:00,7.0,-2.0,30.25,South,186,0.0,3.0,67,0.00,,,0.01,,2013-02-11 12:31:00,
2013-02-11 05:42:00,8.0,-1.0,30.26,South,187,3.0,7.0,66,0.00,,,0.01,,2013-02-11 12:42:00,
2013-02-11 05:52:00,8.0,-1.0,30.26,South,187,3.0,7.0,66,0.00,,,0.01,,2013-02-11 12:52:00,
2013-02-11 06:01:00,6.0,-3.0,30.26,South,187,0.0,4.0,65,0.00,,,0.01,,2013-02-11 13:01:00,
2013-02-11 06:11:00,8.0,-1.0,30.26,South,190,4.0,6.0,67,0.00,,,0.01,,2013-02-11 13:11:00,
2013-02-11 06:21:00,8.0,-1.0,30.26,South,190,4.0,6.0,67,0.00,,,0.01,,2013-02-11 13:21:00,
2013-02-11 06:32:00,8.0,-2.0,30.26,SSW,198,4.0,7.0,64,0.00,,,0.01,,2013-02-11 13:32:00,
2013-02-11 06:41:00,8.0,-2.0,30.26,SSW,198,4.0,7.0,64,0.00,,,0.01,,2013-02-11 13:41:00,
2013-02-11 06:52:00,8.0,-2.0,30.27,WSW,244,1.0,6.0,64,0.00,,,0.01,,2013-02-11 13:52:00,
2013-02-11 07:01:00,9.0,-1.0,30.27,SSW,208,4.0,8.0,63,0.00,,,0.01,,2013-02-11 14:01:00,
2013-02-11 07:11:00,9.0,-1.0,30.27,SSW,208,4.0,8.0,63,0.00,,,0.01,,2013-02-11 14:11:00,
2013-02-11 07:21:00,9.0,-2.0,30.27,SSW,198,7.0,10.0,61,0.00,,,0.01,,2013-02-11 14:21:00,
2013-02-11 07:32:00,9.0,-2.0,30.27,SSW,209,7.0,12.0,60,0.00,,,0.01,,2013-02-11 14:32:00,
2013-02-11 07:41:00,9.0,-2.0,30.27,SSW,209,7.0,12.0,60,0.00,,,0.01,,2013-02-11 14:41:00,
2013-02-11 07:52:00,9.0,-2.0,30.26,SSW,196,6.0,13.0,60,0.00,,,0.01,,2013-02-11 14:52:00,
2013-02-11 08:01:00,9.0,-2.0,30.26,SW,223,6.0,12.0,59,0.00,,,0.01,,2013-02-11 15:01:00,
2013-02-11 08:11:00,9.0,-2.0,30.26,SW,223,6.0,12.0,59,0.00,,,0.01,,2013-02-11 15:11:00,
2013-02-11 08:22:00,9.0,-3.0,30.26,South,170,8.0,12.0,58,0.00,,,0.01,,2013-02-11 15:22:00,
2013-02-11 08:31:00,9.0,-2.0,30.26,South,184,6.0,9.0,59,0.00,,,0.01,,2013-02-11 15:31:00,
2013-02-11 08:42:00,11.0,-1.0,30.27,South,188,3.0,9.0,57,0.00,,,0.01,,2013-02-11 15:42:00,
2013-02-11 08:52:00,11.0,-1.0,30.27,South,188,3.0,9.0,57,0.00,,,0.01,,2013-02-11 15:52:00,
2013-02-11 09:01:00,12.0,-1.0,30.27,SSW,193,4.0,8.0,54,0.00,,,0.01,,2013-02-11 16:01:00,
2013-02-11 09:21:00,13.0,0.0,30.26,South,187,5.0,8.0,54,0.00,,,0.01,,2013-02-11 16:21:00,
2013-02-11 09:31:00,14.0,0.0,30.26,SW,221,2.0,7.0,54,0.00,,,0.01,,2013-02-11 16:31:00,
2013-02-11 09:41:00,14.0,0.0,30.26,South,184,2.0,5.0,54,0.00,,,0.01,,2013-02-11 16:41:00,
2013-02-11 09:52:00,14.0,0.0,30.26,South,184,2.0,5.0,54,0.00,,,0.01,,2013-02-11 16:52:00,
2013-02-11 10:01:00,15.0,2.0,30.26,South,184,1.0,4.0,55,0.00,,,0.01,,2013-02-11 17:01:00,
2013-02-11 10:11:00,15.0,2.0,30.26,South,184,1.0,4.0,55,0.00,,,0.01,,2013-02-11 17:11:00,
2013-02-11 10:21:00,17.0,3.0,30.26,South,184,0.0,2.0,54,0.00,,,0.01,,2013-02-11 17:21:00,
2013-02-11 10:31:00,17.0,3.0,30.26,South,184,0.0,2.0,54,0.00,,,0.01,,2013-02-11 17:31:00,
2013-02-11 10:41:00,17.0,3.0,30.26,South,184,0.0,2.0,54,0.00,,,0.01,,2013-02-11 17:41:00,
2013-02-11 10:52:00,19.0,5.0,30.26,NW,314,0.0,3.0,54,0.00,,,0.01,,2013-02-11 17:52:00,
2013-02-11 11:01:00,18.0,4.0,30.27,NW,322,0.0,2.0,54,0.01,,,0.02,,2013-02-11 18:01:00,
2013-02-11 11:21:00,13.0,1.0,30.27,NE,38,0.0,5.0,59,0.02,,,0.03,,2013-02-11 18:21:00,
2013-02-11 11:31:00,14.0,2.0,30.27,NE,38,0.0,2.0,57,0.02,,,0.03,,2013-02-11 18:31:00,
2013-02-11 11:41:00,14.0,2.0,30.27,NE,38,0.0,2.0,57,0.02,,,0.03,,2013-02-11 18:41:00,
2013-02-11 11:53:00,15.0,3.0,30.27,NE,38,0.0,2.0,57,0.03,,,0.04,,2013-02-11 18:53:00,
2013-02-11 12:01:00,16.0,4.0,30.27,NE,38,0.0,1.0,59,0.02,,,0.04,,2013-02-11 19:01:00,
2013-02-11 12:11:00,16.0,4.0,30.27,NE,38,0.0,1.0,59,0.02,,,0.04,,2013-02-11 19:11:00,
2013-02-11 12:21:00,17.0,3.0,30.26,NE,38,0.0,0.0,53,0.02,,,0.05,,2013-02-11 19:21:00,
2013-02-11 12:31:00,14.0,3.0,30.26,NE,38,2.0,4.0,61,0.02,,,0.05,,2013-02-11 19:31:00,
2013-02-11 12:41:00,14.0,3.0,30.26,NE,38,2.0,4.0,61,0.02,,,0.05,,2013-02-11 19:41:00,
2013-02-11 12:51:00,15.0,4.0,30.26,NE,38,0.0,4.0,62,0.01,,,0.05,,2013-02-11 19:51:00,
2013-02-11 13:01:00,16.0,4.0,30.25,NE,38,0.0,4.0,59,0.02,,,0.05,,2013-02-11 20:01:00,
2013-02-11 13:11:00,16.0,3.0,30.25,NE,38,0.0,3.0,57,0.01,,,0.05,,2013-02-11 20:11:00,
2013-02-11 13:21:00,16.0,3.0,30.25,NE,38,0.0,3.0,57,0.01,,,0.05,,2013-02-11 20:21:00,
2013-02-11 13:31:00,17.0,4.0,30.24,NE,38,0.0,0.0,57,0.02,,,0.06,,2013-02-11 20:31:00,
2013-02-11 13:41:00,17.0,4.0,30.24,NE,38,0.0,0.0,57,0.02,,,0.06,,2013-02-11 20:41:00,
2013-02-11 13:52:00,17.0,4.0,30.24,NE,38,0.0,0.0,57,0.02,,,0.06,,2013-02-11 20:52:00,
2013-02-11 14:01:00,18.0,5.0,30.23,NE,38,0.0,3.0,56,0.02,,,0.07,,2013-02-11 21:01:00,
2013-02-11 14:11:00,17.0,5.0,30.22,NE,38,1.0,3.0,58,0.02,,,0.07,,2013-02-11 21:11:00,
2013-02-11 14:21:00,17.0,5.0,30.22,NE,38,1.0,3.0,58,0.02,,,0.07,,2013-02-11 21:21:00,
2013-02-11 14:31:00,19.0,7.0,30.22,NE,38,0.0,0.0,59,0.03,,,0.09,,2013-02-11 21:31:00,
2013-02-11 14:41:00,19.0,7.0,30.22,NE,38,0.0,0.0,59,0.03,,,0.09,,2013-02-11 21:41:00,
2013-02-11 14:52:00,17.0,5.0,30.22,NE,38,0.0,2.0,58,0.04,,,0.10,,2013-02-11 21:52:00,
2013-02-11 15:01:00,18.0,6.0,30.22,NE,38,0.0,0.0,60,0.04,,,0.11,,2013-02-11 22:01:00,
2013-02-11 15:11:00,21.0,9.0,30.22,NE,38,0.0,0.0,59,0.04,,,0.12,,2013-02-11 22:11:00,
2013-02-11 15:21:00,21.0,9.0,30.22,NE,38,0.0,0.0,59,0.04,,,0.12,,2013-02-11 22:21:00,
2013-02-11 15:31:00,20.0,7.0,30.22,NE,38,0.0,1.0,56,0.04,,,0.13,,2013-02-11 22:31:00,
2013-02-11 15:41:00,20.0,7.0,30.22,NE,38,0.0,1.0,56,0.04,,,0.13,,2013-02-11 22:41:00,
2013-02-11 15:52:00,20.0,8.0,30.22,NE,38,0.0,2.0,60,0.05,,,0.15,,2013-02-11 22:52:00,
2013-02-11 16:01:00,16.0,5.0,30.22,NE,37,1.0,3.0,62,0.05,,,0.16,,2013-02-11 23:01:00,
2013-02-11 16:11:00,16.0,5.0,30.22,NE,37,1.0,3.0,62,0.05,,,0.16,,2013-02-11 23:11:00,
2013-02-11 16:21:00,18.0,8.0,30.22,NE,37,0.0,0.0,64,0.05,,,0.17,,2013-02-11 23:21:00,
2013-02-11 16:31:00,15.0,4.0,30.22,ESE,110,2.0,4.0,61,0.03,,,0.17,,2013-02-11 23:31:00,
2013-02-11 16:41:00,15.0,4.0,30.22,ESE,110,2.0,4.0,61,0.03,,,0.17,,2013-02-11 23:41:00,
2013-02-11 16:52:00,13.0,3.0,30.22,ESE,110,0.0,3.0,65,0.02,,,0.17,,2013-02-11 23:52:00,
2013-02-11 17:01:00,12.0,4.0,30.23,ESE,110,1.0,3.0,68,0.01,,,0.17,,2013-02-12 00:01:00,
2013-02-11 17:11:00,12.0,4.0,30.23,ESE,110,1.0,3.0,68,0.01,,,0.17,,2013-02-12 00:11:00,
2013-02-11 17:21:00,8.0,-1.0,30.24,ESE,110,0.0,3.0,66,0.00,,,0.17,,2013-02-12 00:21:00,
2013-02-11 17:31:00,5.0,-2.0,30.24,ESE,110,0.0,1.0,71,0.00,,,0.17,,2013-02-12 00:31:00,
2013-02-11 17:41:00,5.0,-2.0,30.24,ESE,110,0.0,1.0,71,0.00,,,0.17,,2013-02-12 00:41:00,
2013-02-11 17:52:00,4.0,-2.0,30.24,ESE,110,0.0,2.0,75,0.00,,,0.17,,2013-02-12 00:52:00,
2013-02-11 18:01:00,4.0,-2.0,30.23,South,182,0.0,5.0,77,0.00,,,0.17,,2013-02-12 01:01:00,
2013-02-11 18:21:00,3.0,-2.0,30.24,NNW,333,1.0,4.0,78,0.00,,,0.17,,2013-02-12 01:21:00,
2013-02-11 18:31:00,2.0,-3.0,30.24,NNW,332,0.0,3.0,80,0.00,,,0.17,,2013-02-12 01:31:00,
2013-02-11 18:41:00,2.0,-3.0,30.24,NNW,332,0.0,3.0,80,0.00,,,0.17,,2013-02-12 01:41:00,
2013-02-11 18:52:00,2.0,-2.0,30.25,SW,233,0.0,2.0,81,0.00,,,0.17,,2013-02-12 01:52:00,
2013-02-11 19:01:00,4.0,0.0,30.26,SW,233,0.0,3.0,83,0.00,,,0.17,,2013-02-12 02:01:00,
2013-02-11 19:11:00,4.0,0.0,30.26,SW,233,0.0,3.0,83,0.00,,,0.17,,2013-02-12 02:11:00,
2013-02-11 19:21:00,4.0,0.0,30.27,SW,224,0.0,4.0,82,0.00,,,0.17,,2013-02-12 02:21:00,
2013-02-11 19:31:00,3.0,-1.0,30.27,SW,224,1.0,3.0,83,0.00,,,0.17,,2013-02-12 02:31:00,
2013-02-11 19:41:00,3.0,-1.0,30.27,SW,224,1.0,3.0,83,0.00,,,0.17,,2013-02-12 02:41:00,
2013-02-11 19:52:00,4.0,0.0,30.26,SW,224,0.0,3.0,84,0.00,,,0.17,,2013-02-12 02:52:00,
2013-02-11 20:01:00,5.0,-1.0,30.26,East,101,0.0,4.0,76,0.00,,,0.17,,2013-02-12 03:01:00,
2013-02-11 20:11:00,5.0,-1.0,30.26,East,101,0.0,4.0,76,0.00,,,0.17,,2013-02-12 03:11:00,
2013-02-11 20:21:00,11.0,4.0,30.26,West,261,3.0,8.0,74,0.00,,,0.17,,2013-02-12 03:21:00,
2013-02-11 20:31:00,12.0,3.0,30.26,SSW,211,0.0,6.0,65,0.00,,,0.17,,2013-02-12 03:31:00,
2013-02-11 20:41:00,12.0,3.0,30.26,SSW,211,0.0,6.0,65,0.00,,,0.17,,2013-02-12 03:41:00,
2013-02-11 20:52:00,6.0,-2.0,30.27,WNW,286,1.0,4.0,70,0.00,,,0.17,,2013-02-12 03:52:00,
2013-02-11 21:01:00,4.0,-2.0,30.28,South,171,0.0,3.0,76,0.00,,,0.17,,2013-02-12 04:01:00,
2013-02-11 21:11:00,4.0,-2.0,30.28,South,171,0.0,3.0,76,0.00,,,0.17,,2013-02-12 04:11:00,
2013-02-11 21:21:00,4.0,-2.0,30.28,South,171,0.0,3.0,76,0.00,,,0.17,,2013-02-12 04:21:00,
2013-02-11 21:31:00,15.0,4.0,30.27,SSW,199,6.0,10.0,60,0.00,,,0.17,,2013-02-12 04:31:00,
2013-02-11 21:41:00,15.0,4.0,30.27,SSW,199,6.0,10.0,60,0.00,,,0.17,,2013-02-12 04:41:00,
2013-02-11 21:52:00,15.0,4.0,30.27,SSW,199,6.0,10.0,60,0.00,,,0.17,,2013-02-12 04:52:00,
2013-02-11 22:01:00,18.0,2.0,30.26,South,175,10.0,17.0,49,0.00,,,0.17,,2013-02-12 05:01:00,
2013-02-11 22:31:00,14.0,1.0,30.28,NW,324,1.0,5.0,56,0.00,,,0.17,,2013-02-12 05:31:00,
2013-02-11 22:41:00,14.0,1.0,30.28,NW,324,1.0,5.0,56,0.00,,,0.17,,2013-02-12 05:41:00,
2013-02-11 22:52:00,14.0,1.0,30.28,NW,324,1.0,5.0,56,0.00,,,0.17,,2013-02-12 05:52:00,
2013-02-11 23:01:00,6.0,0.0,30.29,SSW,200,0.0,6.0,76,0.00,,,0.17,,2013-02-12 06:01:00,
2013-02-11 23:12:00,7.0,0.0,30.29,SSW,200,1.0,3.0,73,0.00,,,0.17,,2013-02-12 06:12:00,
2013-02-11 23:21:00,7.0,0.0,30.29,SSW,200,1.0,3.0,73,0.00,,,0.17,,2013-02-12 06:21:00,
2013-02-11 23:31:00,8.0,0.0,30.29,SSE,159,0.0,4.0,69,0.00,,,0.17,,2013-02-12 06:31:00,
2013-02-11 23:42:00,11.0,2.0,30.29,SSE,162,0.0,5.0,66,0.00,,,0.17,,2013-02-12 06:42:00,
2013-02-11 23:51:00,11.0,2.0,30.29,SSE,162,0.0,5.0,66,0.00,,,0.17,,2013-02-12 06:51:00,